User: anonymous   Login
Location: Étavigny
(49.1201°N, 2.9800°E)
Time: 20:01:47
(UTC+00:00)
Language:

Cosmos 2251 Rocket - Orbit

View from above orbital plane
View from above orbital plane
View from above satellite
View from above satellite

Ground track
Ground track

The orbit data is extracted from the following two-line orbital elements,

1 22676U 93036B   24151.55349254  .00000340  00000-0  12951-3 0  9992
2 22676  74.0419 216.4254 0019262 338.6445  21.3901 14.34604958619058
Epoch (UTC): 30 May 2024 13:17:01
Eccentricity: 0.0019262
inclination: 74.0419°
perigee height: 762 km
apogee height: 790 km
right ascension of ascending node: 216.4254°
argument of perigee: 338.6445°
revolutions per day: 14.34604958
mean anomaly at epoch: 21.3901°
orbit number at epoch: 61905

The dashed part of the orbit path shows where the satellite is in the earth's shadow,  

DLR